ONEWEB-0013 (45131 NORAD) Tracking and Keplerian Element Data

This shows tracking and keplerian element data for the satellite.

Feedback or suggestion? Click here.




ElementValue
Catalog45131
NameONEWEB-0013
Epoch Orbit237
Epoch Day48.36810679
Epoch Year2020
RAAN160.9473
Inclination87.4008
Eccentricity0.0015318
Argument of Perigee252.6517
Mean Anonmoly107.3062
Mean Motion15.3880628
Decay Rate-7.392E-05
L11 45131U 20008A 20048.36810679 -.00007392 00000-0 -19377-3 0 9991
L22 45131 87.4008 160.9473 0015318 252.6517 107.3062 15.38806280 2371

Live tracking and technical data element details for ONEWEB-0013 (NORAD 45131). ONEWEB-0013 can be tracked NOW for your location showing map with azimuth and elevation plus other details from your city location.

Track the satellite on the map from your city or location and see movement details for azimuth, elevation, latitude, longitude, range, height, and movement on the map or in text.







IsCatalogInMostPopularTable: catalog: 45131, numindb: -1

Insert: records affected: 1


GetName: 45131 ONEWEB-0013

Hit Count: inserted at: Tue, 18 Feb 2020 00:38:08 GMT